OPS 4682 DEB, 18427

Orbit data source: Space-Track

OPS 4682 DEB, 18427 is space debris in LEO originally from a launch on Sat, 03 Apr 1965 UTC launched from the Air Force Western Test Range (AFWTR). Debris objects in space refer to the collection of defunct objects orbiting the Earth. Examples of debris include non-operational satellites, rocket bodies, and fragments generated from explosions, collisions, or faulty payload assembly.

Loading next visibility...
Identifier
18427, 1965-027AB
Orbit
LEO
Last TLE update
11 hours ago
Origin
Manufacturer
Unknown
Mission
Spacecraft
Bus & Motor
Unknown
Mass
Unknown
Launch date (UTC)
1965-04-03 (60 years ago)
Launch vehicle
Unknown
Launch site
Air Force Western Test Range (AFWTR)
Object type
Payload
Rocket body
Debris
Shape & HBR
Unknown
Radar Cross Section
Small (<0.1 m²)

Expand to show TLE details & history

TLE from 11 hours ago
0 OPS 4682 DEB
1 18427U 65027AB  25169.80498524  .00000922  00000-0  28466-2 0  9996
2 18427  90.2900 355.0770 0022890 112.4308 264.8262 13.04546366910953
Epoch: 2025-06-18T19:19Z
TLE epoch observation values (Epoch: 2025-06-18T19:19:10.724Z)
Latitude
16.98065°
Longitude
157.91245°
Altitude
1,248.224 km
Speed
7.231 km/s
True Right ascension
23h 39m 57s
True Declination
16° 53' 28"
Sunlit
Object was in daylight at epoch
Visualization orbit readout
Latitude
-63.10468°
Longitude
158.58141°
Altitude
1,285.935 km
Speed
7.204 km/s
Apparent Right ascension
02h 45m 33s
Apparent Declination
-58° 35' 31"
Sunlit
Object is in daylight
Visualization observer readout
Local Sidereal Time
16:47:39
Azimuth
144.167° SSE
Elevation
-63.119°
Doppler factor
1
Orbital elements
Apogee altitude
1,258.887 km
Perigee altitude
1,224.005 km
Semi-major axis
7,619.583 km
Eccentricity
0.00229
Inclination
90.29°
RAAN
355.077°
Arg. of periapsis
112.4308°
True anomaly
Unknown
Mean anomaly
264.8262°
Eccentric anomaly
Unknown
Mean motion
3.26322 °/min
Orbital period
110.32 mins
BSTAR
0.0028466
Loading maneuver chart data...
Loading SW <> Apogee altitude chart data...
Loading historical data...
Loading historical data...
Loading historical data...
Loading historical data...
Loading historical data...
Loading historical data...
Loading historical data...

OPS 4682 DEB Visibility forecast

Observer location: undefined°, undefined°

Span
Click to sort rows by Start time (UTC) header in descending order
Start Az.
Max El. time (UTC)
Max El. Az.
Max El.
End time (UTC)
End Az.
13 mins2025-06-19 11:54:15.852Z145.155° SSE2025-06-19 12:00:15.852Z85.257° E34.467°2025-06-19 12:07:15.852Z11.151° NNE
12 mins2025-06-19 13:45:15.852Z218.694° SW2025-06-19 13:50:15.852Z268.814° W29.01°2025-06-19 13:57:15.852Z339.206° N
11 mins2025-06-19 23:28:15.852Z30.63° NE2025-06-19 23:33:15.852Z80.751° E25.115°2025-06-19 23:39:15.852Z137.251° SSE
12 mins2025-06-20 01:18:15.852Z348.247° N2025-06-20 01:23:15.852Z291.545° WNW38.055°2025-06-20 01:30:15.852Z207.261° SW
|